Powrót do katalogu

CZ-4 DEB

AktywnyPO
NORAD 35326·DEBRIS·🇨🇳 China

Wystrzelony Oct 14, 1999 z Taiyuan Satellite Launch Center

Loading…

Następne Przeloty (najbliższe 24 godziny)

TLE

ŚwieżeSource: Space-Track

Epoka: Sep 14, 2026, 08:18 UTC

1 35326U 99057SE  26257.34594922 -.00000142  00000-0 -56096-4 0  9998
2 35326  98.4178 113.3279 0232851  68.5950 293.9885 14.00354406666243

Śledź CZ-4 DEB w czasie rzeczywistym z AllMySat

Download on the App Store